FENGYUN 1C DEB, 35201

Orbit data source: Space-Track

FENGYUN 1C DEB, 35201 is space debris in SSO originally from a launch on Mon, 10 May 1999 UTC launched from the Taiyaun Space Center, China (TSC). Fengyun 1C debris stems from the Chinese weather satellite Fengyun-1C, which was intentionally destroyed by a Chinese anti-satellite missile in 2007. This event dramatically increased the amount of space debris, with thousands of trackable fragments posing hazards to satellites and human spaceflight. The Fengyun 1C debris cloud has become a focal point in discussions about space sustainability and the need for international regulations to prevent the creation of new debris.

Loading next visibility...
Identifier
35201, 1999-025DPH
Orbit
SSO
Country
Flag of CNCN / PRC
Related business
Manufacturer
Unknown
Mission
Spacecraft
Bus & Motor
Unknown
Mass
Unknown
Launch date (UTC)
1999-05-10 (27 years ago)
Launch vehicle
Unknown
Launch site
Taiyaun Space Center, China (TSC)
Object type
Payload
Rocket body
Debris
Shape & HBR
Unknown shape, 0.1 m
Radar Cross Section
Medium (>0.1 m² and <1 m²)

Expand to show TLE details & history
Last TLE update: 6 hours ago

TLE from 6 hours ago
0 FENGYUN 1C DEB
1 35201U 99025DPH 26237.84051133  .00000120  00000-0  90344-4 0  9998
2 35201  98.7068 244.1012 0005734 240.8623 241.2048 14.11142770906317
Epoch: 2026-08-25T20:10Z
TLE epoch observation values (Epoch: 2026-08-25T20:10:20.178Z)
Latitude
57.04822°
Longitude
161.00726°
Altitude
866.991 km
Speed
7.423 km/s
True Right ascension
05h 10m 46s
True Declination
56° 53' 36"
Sunlit
Object was in daylight at epoch
Visualization orbit readout
Latitude
Unknown
Longitude
Unknown
Altitude
Unknown
Speed
Unknown
Apparent Right ascension
Unknown
Apparent Declination
Unknown
Sunlit
N/A
Visualization observer readout
Local Sidereal Time
17:36:19
Azimuth
Unknown
Elevation
Unknown
Doppler factor
Unknown
Orbital elements
Apogee altitude
856.78 km
Perigee altitude
848.488 km
Semi-major axis
7,230.771 km
Eccentricity
0.00057
Inclination
98.7068°
RAAN
244.1012°
Arg. of periapsis
240.8623°
True anomaly
241.14724°
Mean anomaly
241.2048°
Eccentric anomaly
241.17602°
Mean motion
3.52993 °/min
Orbital period
101.98 mins
BSTAR
0.000090344
Loading maneuver chart data...
Computing Atmospheric mass density...

Documentation

Showing up to 5 results
|